Location: Hartford
(41.7640°N, 72.6860°W)
Time: 06:38:10
(UTC-04:00)

Amateur Radio Satellites - All Passes

Search period start: 29 March 2015 06:08
Search period end: 30 March 2015 06:08
Location: Hartford, 41.7640°N, 72.6860°W

Satellite Date Start Highest point End Downlink Frequencies (MHz)
Time Altitude Azimuth
M-CUBED/EXP-1 PRIME 29 Mar 06:12:34 06:15:22 17° 265° (W) 06:18:10 437.505
PHONESAT 2.4 29 Mar 06:21:18 06:24:04 22° 154° (SSE) 06:26:53 2401.200-2431.200
MOZHAYETS 4 29 Mar 06:22:03 06:23:08 10° 274° (W) 06:23:54
CUBESAT XI-V 29 Mar 06:26:17 06:31:00 77° 76° (ENE) 06:35:43 437.345
GONETS M04 29 Mar 06:28:07 06:36:44 56° 76° (ENE) 06:45:25
ISS 29 Mar 06:28:21 06:31:06 25° 224° (SW) 06:33:48 145.825
AO-7 29 Mar 06:42:01 06:49:17 34° 301° (WNW) 06:56:23 29.400- 29.500
JAS-2 29 Mar 06:44:53 06:51:16 28° 299° (WNW) 06:57:07 435.910
STRAND 1 29 Mar 07:02:55 07:08:05 83° 255° (WSW) 07:13:17 437.568
CUTE-I 29 Mar 07:20:23 07:25:45 86° 102° (ESE) 07:31:04 437.470
Cubesat XI-IV 29 Mar 07:20:27 07:25:49 87° 101° (ESE) 07:31:09 437.490
VERMONT LUNAR 29 Mar 07:21:28 07:24:47 63° 172° (S) 07:28:07 437.305
PRISM 29 Mar 07:27:06 07:30:41 26° 265° (W) 07:34:14 437.425
RS-15 29 Mar 07:37:22 07:42:05 12° 262° (W) 07:45:38 29.354- 29.394
CUSAT 1 29 Mar 07:47:47 07:51:53 50° 79° (E) 07:57:20 437.405
PHONESAT 2.4 29 Mar 07:58:36 08:02:05 59° 169° (S) 08:05:35 2401.200-2431.200
CUBESAT XI-V 29 Mar 08:07:44 08:09:06 11° 274° (W) 08:10:10 437.345
GONETS M04 29 Mar 08:25:37 08:33:15 33° 275° (W) 08:40:39
DANDE 29 Mar 08:35:01 08:38:58 72° 261° (W) 08:44:18 436.750
SEEDS 29 Mar 08:40:30 08:42:30 13° 89° (E) 08:44:43 437.485
BRITE-PL 29 Mar 08:40:51 08:44:32 29° 96° (E) 08:48:23 437.365/2234.400
HO-68 29 Mar 08:55:09 09:01:31 34° 95° (E) 09:07:58 435.675
VERMONT LUNAR 29 Mar 08:59:05 09:02:24 64° 189° (S) 09:05:45 437.305
CUTE-I 29 Mar 09:02:30 09:05:11 14° 300° (WNW) 09:07:36 437.470
Cubesat XI-IV 29 Mar 09:02:37 09:05:16 14° 300° (WNW) 09:07:39 437.490
COMPASS 1 29 Mar 09:02:38 09:05:39 19° 92° (E) 09:08:47 437.405
CINEMA 3 29 Mar 09:03:00 09:04:42 12° 89° (E) 09:06:40 145.822/145.860
ANTELSAT 29 Mar 09:13:46 09:14:23 10° 62° (ENE) 09:15:15 437.575/2403.000
DOVE 4 29 Mar 09:19:18 09:23:16 34° 97° (E) 09:27:26 437.250
GOMX 1 29 Mar 09:28:52 09:33:06 66° 101° (E) 09:37:34 467.674
CANX-2 29 Mar 09:30:44 09:35:03 65° 101° (E) 09:39:20 2200.000
CUSAT 1 29 Mar 09:31:48 09:34:41 16° 265° (W) 09:37:46 437.405
BEESAT 3 29 Mar 09:33:03 09:35:19 15° 111° (ESE) 09:37:45 437.485
PHONESAT 2.4 29 Mar 09:36:49 09:40:20 69° 187° (S) 09:43:52 2401.200-2431.200
CUTE 1.7 + AOD 2 29 Mar 09:44:43 09:49:03 84° 102° (ESE) 09:53:22 437.475
DELFI C3 29 Mar 09:52:28 09:55:34 21° 93° (E) 09:58:44 145.870
POPSAT HIP 1 29 Mar 09:57:02 09:59:31 16° 66° (ENE) 10:02:09 437.405
BUGSAT 1 29 Mar 09:59:00 10:00:22 12° 64° (ENE) 10:01:56 437.445
UKube-1 29 Mar 10:05:39 10:07:48 14° 90° (E) 10:10:10 .
UNISAT 6 29 Mar 10:06:11 10:10:06 37° 71° (ENE) 10:14:06 437.425
NANOSAT C BR1 29 Mar 10:07:09 10:10:11 20° 67° (ENE) 10:13:19 145.865
AAUSAT CUBESAT 2 29 Mar 10:10:22 10:14:37 84° 285° (WNW) 10:18:51 437.432
POLYITAN 1 29 Mar 10:10:54 10:14:08 22° 68° (ENE) 10:17:28 437.675
SEEDS 29 Mar 10:14:31 10:18:43 53° 286° (WNW) 10:22:53 437.485
DX 1 29 Mar 10:14:47 10:17:48 19° 92° (E) 10:20:56 434.975-435.025
HUMSAT D 29 Mar 10:15:22 10:17:13 13° 89° (E) 10:19:17 437.325/437.525
TIGRISAT 29 Mar 10:16:24 10:20:27 46° 73° (ENE) 10:24:36 435.000
BRITE-PL 29 Mar 10:19:40 10:23:02 23° 291° (WNW) 10:26:24 437.365/2234.400
BEESAT 2 29 Mar 10:31:33 10:35:33 53° 119° (ESE) 10:39:38 435.950
Oscar 11 29 Mar 10:33:37 10:38:01 81° 102° (ESE) 10:42:23 145.826/435.025
VERMONT LUNAR 29 Mar 10:37:01 10:39:51 25° 204° (SSW) 10:42:40 437.305
COMPASS 1 29 Mar 10:37:34 10:41:31 36° 288° (WNW) 10:45:24 437.405
CINEMA 3 29 Mar 10:38:00 10:42:21 63° 285° (WNW) 10:46:53 145.822/145.860
HO-68 29 Mar 10:42:35 10:49:27 48° 294° (WNW) 10:56:14 435.675
FUNcube-1 29 Mar 10:43:34 10:47:52 53° 100° (E) 10:52:15 145.935
ANTELSAT 29 Mar 10:46:21 10:50:36 79° 257° (WSW) 10:54:57 437.575/2403.000
UWE-3 29 Mar 10:47:06 10:51:31 74° 103° (ESE) 10:56:01 435.000/436.395/437.385
QB50P1 29 Mar 10:47:20 10:51:27 55° 73° (ENE) 10:55:34 145.935-145.965
DUCHIFAT 1 29 Mar 10:49:20 10:53:27 56° 74° (ENE) 10:57:35 145.980
CUBEBUG 2 29 Mar 10:51:36 10:56:01 82° 285° (WNW) 11:00:35 437.445
VELOX 1 29 Mar 10:53:30 10:56:51 21° 93° (E) 11:00:17 145.980
ZACube-1 29 Mar 10:56:17 11:00:41 75° 101° (ESE) 11:05:10 437.345
DOVE 4 29 Mar 10:57:34 11:00:55 22° 291° (WNW) 11:04:17 437.250
AISAT 29 Mar 10:57:54 11:01:29 25° 94° (E) 11:05:08 437.250
QB50P2 29 Mar 11:01:57 11:06:10 83° 79° (E) 11:10:25 145.880/145.840
50 SAT 29 Mar 11:03:13 11:06:42 28° 95° (E) 11:10:14 437.505
CANX-2 29 Mar 11:08:33 11:10:31 13° 296° (WNW) 11:12:16 2200.000
BEESAT 3 29 Mar 11:08:59 11:12:59 52° 307° (NW) 11:17:03 437.485
GOMX 1 29 Mar 11:09:10 11:10:53 12° 295° (WNW) 11:12:24 467.674
PHONESAT 2.4 29 Mar 11:15:17 11:18:27 30° 202° (SSW) 11:21:37 2401.200-2431.200
ESTCUBE 1 29 Mar 11:26:33 11:30:18 26° 94° (E) 11:34:05 437.505/2401.250
DELFI C3 29 Mar 11:27:09 11:30:49 31° 289° (WNW) 11:34:25 145.870
POPSAT HIP 1 29 Mar 11:31:00 11:35:05 47° 261° (W) 11:39:10 437.405
BUGSAT 1 29 Mar 11:31:15 11:35:24 65° 259° (WSW) 11:39:31 437.445
UKube-1 29 Mar 11:40:07 11:44:21 52° 287° (WNW) 11:48:32 .
NANOSAT C BR1 29 Mar 11:41:57 11:45:51 35° 263° (W) 11:49:44 145.865
AIST 2 29 Mar 11:42:01 11:46:17 80° 305° (NW) 11:50:36 435.215
UNISAT 6 29 Mar 11:43:58 11:47:05 19° 268° (W) 11:50:07 437.425
POLYITAN 1 29 Mar 11:46:09 11:49:57 31° 264° (W) 11:53:42 437.675
HUMSAT D 29 Mar 11:49:13 11:53:24 55° 286° (WNW) 11:57:35 437.325/437.525
DX 1 29 Mar 11:50:12 11:54:15 39° 289° (WNW) 11:58:16 434.975-435.025
TIGRISAT 29 Mar 11:55:00 11:57:34 15° 270° (W) 11:59:59 435.000
Oscar 19 29 Mar 12:00:26 12:02:44 14° 61° (ENE) 12:05:18 437.125/150
BEESAT 2 29 Mar 12:11:03 12:14:03 19° 318° (NW) 12:16:59 435.950
Oscar 11 29 Mar 12:12:40 12:13:37 10° 298° (WNW) 12:14:21 145.826/435.025
FUNcube-1 29 Mar 12:21:12 12:23:52 16° 294° (WNW) 12:26:23 145.935
QB50P1 29 Mar 12:25:45 12:27:44 13° 271° (W) 12:29:31 145.935-145.965
UWE-3 29 Mar 12:25:53 12:27:34 12° 296° (WNW) 12:29:02 435.000/436.395/437.385
DUCHIFAT 1 29 Mar 12:27:52 12:29:43 12° 271° (W) 12:31:20 145.980
VELOX 1 29 Mar 12:29:32 12:33:33 35° 290° (WNW) 12:37:32 145.980
CUBEBUG 1 29 Mar 12:29:48 12:34:08 73° 285° (WNW) 12:38:25 437.445
TISAT 1 29 Mar 12:30:20 12:33:42 24° 94° (E) 12:37:08 437.305
AISAT 29 Mar 12:34:14 12:38:08 30° 291° (WNW) 12:41:58 437.250
ZACube-1 29 Mar 12:35:02 12:36:34 11° 296° (WNW) 12:37:53 437.345
50 SAT 29 Mar 12:38:16 12:41:32 23° 291° (WNW) 12:44:43 437.505
SPROUT 29 Mar 12:39:41 12:43:38 36° 97° (E) 12:47:37 437.525
ESTCUBE 1 29 Mar 13:03:12 13:07:12 31° 291° (WNW) 13:11:06 437.505/2401.250
ITAMSAT 1 29 Mar 13:04:24 13:07:47 18° 63° (ENE) 13:11:19 435.822/435.867
SWISSCUBE 29 Mar 13:13:20 13:15:16 13° 88° (E) 13:17:28 437.505
YUBILEINY 29 Mar 13:16:00 13:23:56 41° 87° (E) 13:32:03 435.215
BEESAT 29 Mar 13:16:23 13:18:15 12° 88° (E) 13:20:23 436.000
AIST 2 29 Mar 13:23:39 13:25:38 13° 324° (NW) 13:27:29 435.215
O/OREOS (USA 219) 29 Mar 13:23:55 13:27:51 28° 58° (ENE) 13:31:48 437.305
Oscar 19 29 Mar 13:36:22 13:41:29 82° 257° (WSW) 13:46:39 437.125/150
Gurwin Techsat 1B 29 Mar 13:51:06 13:55:55 37° 69° (ENE) 14:00:49 435.225
AO-7 29 Mar 13:59:05 14:04:14 19° 50° (NE) 14:09:42 29.400- 29.500
ITUPSAT 1 29 Mar 14:01:15 14:05:39 35° 97° (E) 14:10:03 437.325
TISAT 1 29 Mar 14:05:53 14:09:32 29° 290° (WNW) 14:13:08 437.305
SPROUT 29 Mar 14:16:20 14:19:32 20° 293° (WNW) 14:22:37 437.525
HORYU 2 29 Mar 14:36:42 14:40:02 22° 67° (ENE) 14:43:29 437.375
ITAMSAT 1 29 Mar 14:41:41 14:46:51 62° 259° (W) 14:52:02 435.822/435.867
SWISSCUBE 29 Mar 14:48:57 14:53:44 69° 285° (WNW) 14:58:28 437.505
BEESAT 29 Mar 14:51:55 14:56:42 70° 285° (WNW) 15:01:26 436.000
AIST 1 29 Mar 14:57:28 15:01:19 32° 75° (ENE) 15:05:11
PCSat 29 Mar 14:58:04 15:03:25 68° 117° (ESE) 15:08:51 145.827
KKS-1 29 Mar 15:01:06 15:04:55 28° 95° (E) 15:08:47 437.445
O/OREOS (USA 219) 29 Mar 15:03:19 15:07:16 29° 256° (WSW) 15:11:07 437.305
JAS-2 29 Mar 15:10:54 15:16:56 33° 63° (ENE) 15:23:36 435.910
YUBILEINY 29 Mar 15:12:22 15:20:45 45° 288° (WNW) 15:29:06 435.215
Gurwin Techsat 1B 29 Mar 15:31:25 15:36:00 28° 266° (W) 15:40:31 435.225
STARS 29 Mar 15:32:57 15:37:05 39° 98° (E) 15:41:14 437.465
ITUPSAT 1 29 Mar 15:39:27 15:43:25 26° 293° (WNW) 15:47:17 437.325
AO-7 29 Mar 15:47:37 15:55:54 78° 70° (ENE) 16:04:13 29.400- 29.500
HORYU 2 29 Mar 16:12:24 16:16:31 36° 263° (W) 16:20:37 437.375
AIST 1 29 Mar 16:35:34 16:38:49 20° 271° (W) 16:41:56
MOZHAYETS 4 29 Mar 16:36:37 16:39:45 18° 90° (E) 16:43:01
KKS-1 29 Mar 16:37:43 16:41:32 28° 291° (WNW) 16:45:16 437.445
PCSat 29 Mar 16:43:15 16:47:24 21° 316° (NW) 16:51:28 145.827
JAS-2 29 Mar 16:54:56 17:01:38 53° 263° (W) 17:09:02 435.910
CUTE-I 29 Mar 17:04:34 17:08:18 20° 63° (ENE) 17:12:11 437.470
Cubesat XI-IV 29 Mar 17:04:44 17:08:30 20° 63° (ENE) 17:12:26 437.490
STARS 29 Mar 17:10:03 17:13:20 20° 293° (WNW) 17:16:29 437.465
AUBIESAT-1 29 Mar 17:28:37 17:31:55 19° 95° (E) 17:35:20 437.475
RS-15 29 Mar 17:36:12 17:43:03 21° 102° (ESE) 17:50:36 29.354- 29.394
GONETS M04 29 Mar 17:41:39 17:42:22 10° 74° (ENE) 17:43:53
AO-7 29 Mar 17:43:20 17:49:39 22° 270° (W) 17:55:37 29.400- 29.500
BEESAT 3 29 Mar 17:51:04 17:53:13 14° 39° (NE) 17:55:28 437.485
M-CUBED/EXP-1 PRIME 29 Mar 17:52:19 17:56:47 36° 101° (E) 18:01:11 437.505
MOZHAYETS 4 29 Mar 18:12:48 18:17:16 45° 288° (WNW) 18:21:41
CUBESAT XI-V 29 Mar 18:23:53 18:27:04 19° 91° (E) 18:30:23 437.345
AIST 2 29 Mar 18:27:09 18:28:31 11° 35° (NE) 18:30:01 435.215
CUTE-I 29 Mar 18:42:42 18:47:59 58° 259° (W) 18:53:17 437.470
Cubesat XI-IV 29 Mar 18:42:56 18:48:13 57° 259° (W) 18:53:32 437.490
BEESAT 2 29 Mar 18:50:56 18:54:47 37° 50° (NE) 18:58:38 435.950
AUBIESAT-1 29 Mar 19:02:20 19:07:03 51° 293° (WNW) 19:11:38 437.475
PRISM 29 Mar 19:08:51 19:12:48 40° 98° (E) 19:16:44 437.425
STRAND 1 29 Mar 19:13:36 19:18:09 32° 96° (E) 19:22:43 437.568
SO-50 29 Mar 19:17:14 19:21:52 85° 122° (ESE) 19:26:41 436.795
HO-68 29 Mar 19:24:42 19:30:25 28° 60° (ENE) 19:36:20 435.675
M-CUBED/EXP-1 PRIME 29 Mar 19:27:21 19:31:31 28° 297° (WNW) 19:35:32 437.505
BEESAT 3 29 Mar 19:27:43 19:31:52 80° 239° (WSW) 19:35:55 437.485
GONETS M04 29 Mar 19:29:08 19:37:37 63° 93° (E) 19:46:14
SEEDS 29 Mar 19:34:46 19:35:32 11° 63° (ENE) 19:36:33 437.485
RS-15 29 Mar 19:43:05 19:53:59 86° 121° (ESE) 20:05:08 29.354- 29.394
BRITE-PL 29 Mar 19:52:04 19:56:22 38° 72° (ENE) 20:00:28 437.365/2234.400
COMPASS 1 29 Mar 19:55:18 19:57:34 15° 65° (ENE) 20:00:00 437.405
CUBESAT XI-V 29 Mar 20:00:22 20:04:47 43° 288° (WNW) 20:09:08 437.345
AIST 2 29 Mar 20:03:42 20:07:58 72° 56° (NE) 20:12:08 435.215
CINEMA 3 29 Mar 20:06:33 20:07:46 11° 64° (ENE) 20:09:12 145.822/145.860
CANX-2 29 Mar 20:23:57 20:28:00 47° 73° (ENE) 20:32:08 2200.000
DOVE 4 29 Mar 20:25:44 20:29:40 35° 72° (ENE) 20:33:32 437.250
BEESAT 2 29 Mar 20:29:32 20:32:45 22° 247° (WSW) 20:35:51 435.950
GOMX 1 29 Mar 20:37:31 20:42:00 74° 76° (ENE) 20:46:16 467.674
CUTE 1.7 + AOD 2 29 Mar 20:37:43 20:41:54 61° 75° (ENE) 20:46:07 437.475
DELFI C3 29 Mar 20:41:37 20:43:50 15° 65° (ENE) 20:46:11 145.870
PRISM 29 Mar 20:45:09 20:48:02 18° 294° (WNW) 20:50:45 437.425
STRAND 1 29 Mar 20:52:50 20:57:19 31° 293° (WNW) 21:01:43 437.568
CUSAT 1 29 Mar 20:59:44 21:02:29 46° 98° (E) 21:05:01 437.405
SO-50 29 Mar 21:00:01 21:03:07 17° 323° (NW) 21:06:11 436.795
AAUSAT CUBESAT 2 29 Mar 21:01:21 21:05:29 67° 75° (ENE) 21:09:40 437.432
UKube-1 29 Mar 21:01:31 21:03:37 14° 64° (ENE) 21:05:55 .
SEEDS 29 Mar 21:06:36 21:10:48 75° 258° (WSW) 21:15:03 437.485
HO-68 29 Mar 21:10:38 21:17:43 62° 258° (WSW) 21:24:51 435.675
DX 1 29 Mar 21:11:08 21:14:04 18° 66° (ENE) 21:17:07 434.975-435.025
GONETS M04 29 Mar 21:27:45 21:35:11 29° 294° (WNW) 21:42:27
Oscar 11 29 Mar 21:28:29 21:32:45 64° 75° (ENE) 21:37:03 145.826/435.025
COMPASS 1 29 Mar 21:28:49 21:32:54 50° 261° (W) 21:37:01 437.405
BRITE-PL 29 Mar 21:31:29 21:35:03 21° 267° (W) 21:38:21 437.365/2234.400
FUNcube-1 29 Mar 21:40:00 21:43:52 41° 72° (ENE) 21:47:48 145.935
CINEMA 3 29 Mar 21:40:22 21:44:33 65° 259° (W) 21:48:42 145.822/145.860
AIST 2 29 Mar 21:44:40 21:46:02 11° 251° (WSW) 21:47:09 435.215
UWE-3 29 Mar 21:44:48 21:48:53 60° 75° (ENE) 21:52:59 435.000/436.395/437.385
CUBEBUG 2 29 Mar 21:50:22 21:54:31 85° 78° (ENE) 21:58:42 437.445
50 SAT 29 Mar 21:50:29 21:53:06 18° 67° (ENE) 21:55:51 437.505
DANDE 29 Mar 21:50:53 21:53:43 34° 282° (WNW) 21:56:13 436.750
VELOX 1 29 Mar 21:51:49 21:55:07 21° 67° (ENE) 21:58:32 145.980
ZACube-1 29 Mar 21:52:46 21:56:50 59° 74° (ENE) 22:00:57 437.345
CUBEBUG 1 29 Mar 21:54:21 21:54:34 10° 62° (ENE) 21:55:03 437.445
AISAT 29 Mar 21:56:22 21:59:54 24° 68° (ENE) 22:03:31 437.250
RS-15 29 Mar 21:58:13 22:07:55 34° 328° (NNW) 22:17:45 29.354- 29.394
CANX-2 29 Mar 22:01:45 22:04:17 15° 270° (W) 22:06:39 2200.000
DOVE 4 29 Mar 22:04:27 22:07:37 19° 267° (W) 22:10:36 437.250
PCSat 29 Mar 22:04:28 22:06:22 12° 34° (NE) 22:08:29 145.827
TIGRISAT 29 Mar 22:11:01 22:11:05 10° 87° (E) 22:11:28 435.000
DELFI C3 29 Mar 22:14:42 22:18:39 48° 261° (W) 22:22:38 145.870
CUTE 1.7 + AOD 2 29 Mar 22:16:47 22:18:19 11° 272° (W) 22:19:37 437.475
ESTCUBE 1 29 Mar 22:26:40 22:30:23 26° 68° (ENE) 22:34:11 437.505/2401.250
UKube-1 29 Mar 22:35:03 22:39:20 60° 259° (W) 22:43:39 .
ANTELSAT 29 Mar 22:38:29 22:42:01 22° 93° (E) 22:45:41 437.575/2403.000
AAUSAT CUBESAT 2 29 Mar 22:41:10 22:41:41 10° 273° (W) 22:41:55 437.432
HUMSAT D 29 Mar 22:41:15 22:45:21 77° 258° (WSW) 22:49:29 437.325/437.525
DX 1 29 Mar 22:45:52 22:50:03 43° 261° (W) 22:54:12 434.975-435.025
QB50P2 29 Mar 22:48:51 22:50:48 13° 89° (E) 22:52:58 145.880/145.840
ISS 29 Mar 23:06:48 23:10:03 79° 144° (SE) 23:13:19 145.825
Oscar 11 29 Mar 23:07:55 23:09:27 11° 272° (W) 23:10:44 145.826/435.025
BUGSAT 1 29 Mar 23:14:26 23:17:00 17° 92° (E) 23:19:42 437.445
POPSAT HIP 1 29 Mar 23:16:18 23:19:50 26° 95° (E) 23:23:25 437.405
FUNcube-1 29 Mar 23:17:51 23:20:29 16° 269° (W) 23:22:59 145.935
TISAT 1 29 Mar 23:23:27 23:26:27 20° 67° (ENE) 23:29:34 437.305
50 SAT 29 Mar 23:24:12 23:27:48 34° 263° (W) 23:31:25 437.505
UWE-3 29 Mar 23:24:41 23:25:56 11° 272° (W) 23:26:56 435.000/436.395/437.385
CUBEBUG 1 29 Mar 23:25:56 23:30:21 86° 257° (WSW) 23:34:47 437.445
YUBILEINY 29 Mar 23:26:12 23:32:11 20° 60° (ENE) 23:38:32 435.215
NANOSAT C BR1 29 Mar 23:26:33 23:30:23 33° 97° (E) 23:34:15 145.865
VELOX 1 29 Mar 23:27:21 23:31:30 37° 263° (W) 23:35:38 145.980
POLYITAN 1 29 Mar 23:31:00 23:34:59 38° 97° (E) 23:38:59 437.675
ZACube-1 29 Mar 23:32:23 23:33:43 11° 272° (W) 23:34:49 437.345
AISAT 29 Mar 23:32:23 23:36:23 32° 263° (W) 23:40:22 437.250
UNISAT 6 29 Mar 23:33:47 23:38:24 83° 104° (ESE) 23:43:04 437.425
SPROUT 29 Mar 23:34:20 23:38:04 30° 70° (ENE) 23:41:50 437.525
TIGRISAT 29 Mar 23:43:54 23:48:29 80° 284° (WNW) 23:53:07 435.000
PCSat 29 Mar 23:45:44 23:51:06 57° 56° (NE) 23:56:26 145.827
ESTCUBE 1 30 Mar 00:03:04 00:07:10 32° 264° (W) 00:11:13 437.505/2401.250
QB50P1 30 Mar 00:07:53 00:12:08 80° 284° (WNW) 00:16:22 145.935-145.965
DUCHIFAT 1 30 Mar 00:09:33 00:13:46 79° 284° (WNW) 00:17:59 145.980
ANTELSAT 30 Mar 00:14:42 00:18:57 38° 289° (WNW) 00:23:13 437.575/2403.000
RS-15 30 Mar 00:16:56 00:24:59 22° 2° (N) 00:33:18 29.354- 29.394
SWISSCUBE 30 Mar 00:20:06 00:23:01 17° 64° (ENE) 00:26:08 437.505
QB50P2 30 Mar 00:22:57 00:27:06 53° 287° (WNW) 00:31:13 145.880/145.840
BEESAT 30 Mar 00:23:02 00:25:55 16° 63° (ENE) 00:28:58 436.000
ISS 30 Mar 00:44:09 00:46:46 22° 342° (NNW) 00:49:21 145.825
BUGSAT 1 30 Mar 00:48:57 00:52:42 37° 288° (WNW) 00:56:24 437.445
POPSAT HIP 1 30 Mar 00:52:06 00:55:42 27° 291° (WNW) 00:59:14 437.405
TISAT 1 30 Mar 00:58:08 01:02:03 36° 263° (W) 01:05:57 437.305
NANOSAT C BR1 30 Mar 01:02:50 01:06:05 21° 292° (WNW) 01:09:13 145.865
POLYITAN 1 30 Mar 01:07:38 01:10:41 19° 293° (WNW) 01:13:37 437.675
ITUPSAT 1 30 Mar 01:08:17 01:12:48 43° 71° (ENE) 01:17:23 437.325
SPROUT 30 Mar 01:10:39 01:14:11 24° 266° (W) 01:17:39 437.525
UNISAT 6 30 Mar 01:13:06 01:14:38 11° 298° (WNW) 01:15:56 437.425
YUBILEINY 30 Mar 01:21:33 01:30:26 88° 263° (W) 01:39:13 435.215
PCSat 30 Mar 01:30:08 01:34:08 20° 253° (WSW) 01:37:57 145.827
Oscar 19 30 Mar 01:47:53 01:52:34 34° 96° (E) 01:57:18 437.125/150
SWISSCUBE 30 Mar 01:55:43 02:00:28 58° 259° (W) 02:05:14 437.505
BEESAT 30 Mar 01:58:37 02:03:21 59° 260° (W) 02:08:07 436.000
KKS-1 30 Mar 01:59:48 02:03:31 27° 68° (ENE) 02:07:17 437.445
Gurwin Techsat 1B 30 Mar 02:08:25 02:11:00 14° 88° (E) 02:13:52 435.225
SO-50 30 Mar 02:09:11 02:12:05 16° 36° (NE) 02:15:07 436.795
ISS 30 Mar 02:22:10 02:24:03 14° 2° (N) 02:25:56 145.825
STARS 30 Mar 02:30:18 02:34:17 36° 70° (ENE) 02:38:19 437.465
RS-15 30 Mar 02:31:35 02:41:52 38° 36° (NE) 02:52:42 29.354- 29.394
ITUPSAT 1 30 Mar 02:47:15 02:50:56 21° 268° (W) 02:54:29 437.325
ITAMSAT 1 30 Mar 02:54:20 02:59:18 46° 98° (E) 03:04:16 435.822/435.867
YUBILEINY 30 Mar 03:20:39 03:26:07 17° 282° (WNW) 03:31:04 435.215
Oscar 19 30 Mar 03:27:22 03:31:51 30° 293° (WNW) 03:36:16 437.125/150
AIST 1 30 Mar 03:27:59 03:31:05 20° 88° (E) 03:34:19
KKS-1 30 Mar 03:36:14 03:40:07 28° 265° (W) 03:43:55 437.445
O/OREOS (USA 219) 30 Mar 03:36:26 03:40:24 30° 105° (ESE) 03:44:27 437.305
MOZHAYETS 4 30 Mar 03:39:14 03:42:21 19° 66° (ENE) 03:45:39
Gurwin Techsat 1B 30 Mar 03:46:19 03:51:39 73° 286° (WNW) 03:56:56 435.225
SO-50 30 Mar 03:48:29 03:53:29 81° 57° (ENE) 03:58:25 436.795
AO-7 30 Mar 03:49:53 03:56:13 25° 92° (E) 04:02:49 29.400- 29.500
ISS 30 Mar 03:58:28 04:01:15 26° 22° (NNE) 04:04:03 145.825
HORYU 2 30 Mar 04:03:08 04:07:22 40° 98° (E) 04:11:38 437.375
JAS-2 30 Mar 04:04:56 04:11:21 29° 89° (E) 04:17:29 435.910
STARS 30 Mar 04:07:32 04:10:53 21° 267° (W) 04:14:08 437.465
AUBIESAT-1 30 Mar 04:17:03 04:20:17 23° 61° (ENE) 04:23:46 437.475
ITAMSAT 1 30 Mar 04:34:29 04:38:33 23° 295° (WNW) 04:42:29 435.822/435.867
M-CUBED/EXP-1 PRIME 30 Mar 04:41:15 04:45:06 44° 66° (ENE) 04:49:19 437.505
RS-15 30 Mar 04:44:02 04:55:33 79° 240° (WSW) 05:07:33 29.354- 29.394
VERMONT LUNAR 30 Mar 04:56:51 04:59:16 19° 153° (SSE) 05:01:44 437.305
AIST 1 30 Mar 05:04:28 05:08:32 35° 284° (WNW) 05:12:35
MOZHAYETS 4 30 Mar 05:14:49 05:19:17 47° 262° (W) 05:23:46
O/OREOS (USA 219) 30 Mar 05:15:49 05:19:49 28° 302° (WNW) 05:23:48 437.305
CUBESAT XI-V 30 Mar 05:27:47 05:31:09 20° 66° (ENE) 05:34:39 437.345
Gurwin Techsat 1B 30 Mar 05:29:56 05:30:49 10° 302° (WNW) 05:31:22 435.225
SO-50 30 Mar 05:31:09 05:33:27 13° 251° (WSW) 05:35:30 436.795
ISS 30 Mar 05:34:40 05:37:48 50° 220° (SW) 05:40:57 145.825
GONETS M04 30 Mar 05:39:17 05:46:50 32° 67° (ENE) 05:54:36
HORYU 2 30 Mar 05:40:24 05:43:48 21° 294° (WNW) 05:47:04 437.375
AO-7 30 Mar 05:41:33 05:49:50 73° 291° (WNW) 05:58:04 29.400- 29.500
PHONESAT 2.4 30 Mar 05:42:34 05:45:06 19° 152° (SSE) 05:47:40 2401.200-2431.200
JAS-2 30 Mar 05:49:15 05:56:54 60° 289° (WNW) 06:03:53 435.910
AUBIESAT-1 30 Mar 05:51:12 05:54:54 34° 259° (W) 05:58:54 437.475
PRISM 30 Mar 05:59:28 06:03:12 32° 70° (ENE) 06:07:01 437.425
